Weather Roundup
Issued by NWS Springfield, MO

Home | Current Version | Previous Version | Text Only | Print | Product List | Glossary On
Versions: 1 2 3 4 5 6 7 8 9 10 11 12 13 14 15 16 17 18 19 20 21 22 23 24 25 26 27 28 29 30 31 32 33 34 35 36 37 38 39 40 41 42 43 44 45 46 47 48 49 50
000
NZUS99 KSGF 200607
HRRSGF

HOURLY WEATHER
NATIONAL WEATHER SERVICE SPRINGFIELD MO
1200 AM CST TUE FEB 20 2018

......SGF CWA......

CITY           SKY/WX    TMP DP  RH WIND       PRES   REMARKS
SPRINGFIELD    CLOUDY    65  57  75 S16       29.80F
6HR MIN TEMP:  64; 6HR MAX TEMP:  67; 6HR PCP: TRACE;

JOPLIN         LGT RAIN  64  61  90 S22G31    29.78R
6HR MIN TEMP:  52; 6HR MAX TEMP:  65; 6HR PCP:  0.36;

WEST PLAINS    PTCLDY    66  57  72 S15G22    29.93R
6HR MIN TEMP:  65; 6HR MAX TEMP:  67;

ROLLA          CLOUDY    65  58  78 S22G31    29.85F
6HR MIN TEMP:  64; 6HR MAX TEMP:  65; 6HR PCP: TRACE;

OSAGE BEACH    LGT RAIN  63  59  87 S10       29.81R

......SURROUNDING SGF CWA......

CITY           SKY/WX    TMP DP  RH WIND       PRES   REMARKS
CHANUTE        LGT RAIN  36  35  96 NE8       29.77F FOG     WCI  30
PARSONS        LGT RAIN  38  38 100 VRB5      29.78F FOG     WCI  34
COFFEYVILLE    LGT RAIN  39  39 100 N6        29.77F FOG     WCI  35
EMPORIA        CLOUDY    29  27  92 NW9       29.79S FOG     WCI  20
GROVE OK       CLOUDY    64  61  88 S9        29.80S
ROGERS AR      CLOUDY    67  54  63 S26G33    29.84S
SILOAM SPRINGS CLOUDY    67  55  65 S21G30    29.83S
HARRISON AR    CLOUDY    67  54  63 S16G38    29.89S
NEAR YELLVILLE CLOUDY    70  57  63 S13G24    29.92R

......KANSAS AND MISSOURI......

CITY           SKY/WX    TMP DP  RH WIND       PRES   REMARKS
KANSAS CTY INT FRZ RAIN  30  29  96 N8        29.79F FOG     WCI  22
DOWNTOWN KC    CLOUDY    32  30  92 CALM      29.81F FOG
COLUMBIA       CLOUDY    61  59  93 SW8       29.79S
SEDALIA        CLOUDY    41  41 100 N5        29.82R
ST JOSEPH      CLOUDY    28  28 100 N7        29.82F FOG     WCI  21
ST LOUIS       CLOUDY    67  60  78 S13G23    29.87F
SPIRIT OF STL  CLOUDY    69  60  73 S12G26    29.85F
KIRKSVILLE     LGT RAIN  38  38 100 NE7       29.82S FOG     WCI  33
WICHITA        CLOUDY    29  28  96 N10       29.79S FOG     WCI  20
TOPEKA         CLOUDY    28  27  96 N8        29.81F FOG     WCI  20
OLATHE         TSTM      31  31 100 NE8       29.78F FOG     WCI  23

......TENNESSEE......

CITY           SKY/WX    TMP DP  RH WIND       PRES   REMARKS
MEMPHIS        FAIR      70  59  68 S16G25    30.07R
NASHVILLE      MOCLDY    68  55  63 S17       30.16R

......ARKANSAS.......

CITY           SKY/WX    TMP DP  RH WIND       PRES   REMARKS
FAYETTEVILLE   CLOUDY    66  55  67 S20G33    29.84R
FT SMITH       CLOUDY    72  57  59 S12G20    29.85S
LITTLE ROCK    CLOUDY    70  60  70 S13G21    29.99R

......OKLAHOMA.......

CITY           SKY/WX    TMP DP  RH WIND       PRES   REMARKS
TULSA          CLOUDY    67  63  87 S18G28    29.73F
PONCA CITY     CLOUDY    35  33  92 N9        29.77R FOG     WCI  28
MCALESTER      MOCLDY    68  60  75 S15G24    29.81R
OKLAHOMA CITY  CLOUDY    48  42  80 CALM      29.73R

......IOWA............

CITY           SKY/WX    TMP DP  RH WIND       PRES   REMARKS
DES MOINES     FRZ RAIN  27  26  96 NW3       29.81F
QUAD CITIES    HVY RAIN  41  40  96 W5        29.81R FOG

......ILLINOIS........

CITY           SKY/WX    TMP DP  RH WIND       PRES   REMARKS
QUINCY         HVY RAIN  54  53  97 NW6       29.81F VSB 1/2
CHICAGO        RAIN      59  56  89 SW15      29.81S FOG




USA.gov is the U.S. government's official web portal to all federal, state and local government web resources and services.